EW9362 Weather Reports


time (UTC)temp
C
wind
direction
speed
KPH
gust
KPH
rain 1hr
cm
rain 24hr
cm
rain mn
cm
humidity
%
barometer
mb
20260905205029 35 53 0.0 11.3 0.00 0.08 0.08 49 1011.0
20260905204556 34 37 3.2 11.3 0.00 0.08 0.08 50 1011.0
20260905204031 34 40 4.8 11.3 0.00 0.08 0.08 49 1011.2
20260905203531 35 189 0.0 11.3 0.00 0.08 0.08 49 1011.1
20260905203058 34 352 1.6 14.5 0.00 0.08 0.08 50 1011.3
20260905202532 34 351 6.4 14.5 0.00 0.08 0.08 50 1011.3
20260905202030 34 0 1.6 11.3 0.00 0.08 0.08 50 1011.5
20260905201546 33 0 4.8 12.9 0.00 0.08 0.08 50 1011.4
20260905201028 34 34 0.0 12.9 0.00 0.08 0.08 50 1011.5
20260905200530 34 339 0.0 14.5 0.00 0.08 0.08 50 1011.6
20260905200127 33 10 8.0 14.5 0.00 0.08 0.08 51 1011.7
20260905195528 33 8 8.0 11.3 0.00 0.08 0.08 51 1011.7
20260905195031 34 349 0.0 12.9 0.00 0.08 0.08 50 1011.7
20260905194552 33 302 1.6 14.5 0.00 0.08 0.08 51 1011.8
20260905194032 33 349 4.8 14.5 0.00 0.08 0.08 51 1012.0
20260905193530 34 6 1.6 9.7 0.00 0.08 0.08 51 1012.1
20260905193047 33 0 1.6 11.3 0.00 0.08 0.08 51 1012.1
20260905192532 33 0 4.8 11.3 0.00 0.08 0.08 51 1012.2
20260905192028 35 0 0.0 6.4 0.00 0.08 0.08 50 1012.2
20260905191546 34 0 0.0 6.4 0.00 0.08 0.08 51 1012.3
20260905191029 34 357 0.0 3.2 0.00 0.08 0.08 51 1012.3
20260905190529 34 18 0.0 3.2 0.00 0.08 0.08 53 1012.4
20260905190100 34 43 1.6 8.0 0.00 0.08 0.08 51 1012.4
20260905185530 35 195 1.6 8.0 0.00 0.08 0.08 52 1012.5
20260905185031 34 0 0.0 6.4 0.00 0.08 0.08 51 1012.6
20260905184601 33 166 0.0 8.0 0.00 0.08 0.08 52 1012.7
20260905184028 33 354 3.2 8.0 0.00 0.08 0.08 53 1012.8
20260905183528 33 292 0.0 6.4 0.00 0.08 0.08 51 1012.9
20260905183051 33 0 3.2 6.4 0.00 0.08 0.08 53 1013.0
20260905182531 33 147 1.6 4.8 0.00 0.08 0.08 52 1013.0
20260905182029 33 115 0.0 8.0 0.00 0.08 0.08 53 1013.1
20260905181548 33 0 3.2 8.0 0.00 0.08 0.08 51 1013.1
20260905181029 33 160 1.6 8.0 0.00 0.08 0.08 52 1013.2
20260905180531 33 179 1.6 8.0 0.00 0.08 0.08 52 1013.2
20260905180112 33 155 1.6 8.0 0.00 0.08 0.08 51 1013.3
20260905175529 33 231 3.2 8.0 0.00 0.08 0.08 52 1013.3
20260905175029 33 0 0.0 4.8 0.00 0.08 0.08 52 1013.3
20260905174554 33 116 0.0 6.4 0.00 0.08 0.08 52 1013.3
20260905174031 33 184 1.6 8.0 0.00 0.08 0.08 53 1013.3
20260905173528 32 0 3.2 8.0 0.00 0.08 0.08 53 1013.3
20260905173121 32 190 1.6 9.7 0.00 0.08 0.08 52 1013.3
20260905172528 32 158 4.8 9.7 0.00 0.08 0.08 54 1013.4
20260905172030 32 154 1.6 9.7 0.00 0.08 0.08 54 1013.5
20260905171558 32 162 3.2 9.7 0.00 0.08 0.08 54 1013.5
20260905171028 32 167 4.8 8.0 0.00 0.08 0.08 54 1013.5
20260905170529 31 0 3.2 6.4 0.00 0.08 0.08 55 1013.6
20260905165535 31 90 1.6 9.7 0.00 0.08 0.08 56 1013.8
20260905165028 31 158 4.8 9.7 0.00 0.08 0.08 55 1014.0
20260905164558 31 223 3.2 9.7 0.00 0.08 0.08 56 1014.1
20260905164029 31 128 0.0 14.5 0.00 0.08 0.08 58 1014.2
20260905163528 31 172 4.8 14.5 0.00 0.08 0.08 56 1014.2
20260905163051 30 156 3.2 11.3 0.00 0.08 0.08 58 1014.1
20260905162529 30 139 6.4 11.3 0.00 0.08 0.08 58 1014.3
20260905162028 30 155 4.8 11.3 0.00 0.08 0.08 57 1014.3
20260905161559 30 160 1.6 11.3 0.00 0.08 0.08 60 1014.2
20260905161031 30 191 3.2 11.3 0.00 0.08 0.08 60 1014.1
20260905160529 30 141 3.2 8.0 0.00 0.08 0.08 63 1014.1
20260905160100 30 156 0.0 8.0 0.00 0.08 0.08 63 1014.3
20260905155534 29 184 3.2 12.9 0.00 0.08 0.08 64 1014.3
20260905155028 29 171 4.8 12.9 0.00 0.08 0.08 66 1014.3
20260905154552 29 198 1.6 11.3 0.00 0.08 0.08 66 1014.4
20260905154033 28 171 4.8 11.3 0.00 0.08 0.08 67 1014.5
20260905153531 28 243 4.8 11.3 0.00 0.08 0.08 68 1014.5
20260905153051 28 199 4.8 16.1 0.00 0.08 0.08 69 1014.4
20260905152530 27 186 6.4 16.1 0.00 0.08 0.08 70 1014.5
20260905152031 27 180 4.8 12.9 0.00 0.08 0.08 71 1014.5
20260905151559 27 173 4.8 12.9 0.00 0.08 0.08 73 1014.4
20260905151031 27 172 3.2 11.3 0.00 0.08 0.08 70 1014.5
20260905150532 27 193 6.4 12.9 0.00 0.08 0.08 71 1014.4
20260905150053 27 172 6.4 14.5 0.00 0.08 0.08 72 1014.5
20260905145531 27 189 3.2 14.5 0.00 0.08 0.08 73 1014.7
20260905145031 26 144 4.8 16.1 0.00 0.08 0.08 75 1014.8
20260905144559 26 159 8.0 16.1 0.00 0.08 0.08 76 1014.6
20260905144031 26 170 6.4 16.1 0.00 0.08 0.08 76 1014.7
20260905143528 26 128 6.4 12.9 0.00 0.08 0.08 77 1014.8
20260905143102 26 140 3.2 16.1 0.00 0.08 0.08 80 1014.9
20260905142533 25 143 4.8 16.1 0.03 0.08 0.08 81 1014.7
20260905142028 25 138 4.8 16.1 0.05 0.08 0.08 80 1014.7
20260905141558 25 0 3.2 12.9 0.05 0.08 0.08 84 1014.9
20260905141029 25 115 3.2 8.0 0.05 0.08 0.08 85 1014.8
20260905140531 24 155 3.2 12.9 0.05 0.08 0.08 86 1014.8
20260905135527 23 191 3.2 11.3 0.05 0.08 0.08 87 1015.1
20260905135029 23 0 3.2 12.9 0.05 0.08 0.08 87 1015.1
20260905134559 23 157 4.8 12.9 0.05 0.08 0.08 87 1015.2
20260905134031 23 157 1.6 6.4 0.05 0.08 0.08 87 1015.1
20260905133530 23 145 0.0 11.3 0.05 0.08 0.08 88 1015.5
20260905133058 23 0 1.6 11.3 0.05 0.08 0.08 87 1015.8
20260905132530 23 102 1.6 8.0 0.03 0.05 0.05 86 1015.6
20260905132028 24 124 0.0 8.0 0.00 0.03 0.03 86 1015.7
20260905131557 23 0 1.6 8.0 0.00 0.03 0.03 86 1015.7
20260905131027 23 158 0.0 8.0 0.00 0.03 0.03 87 1015.4
20260905130529 23 31 0.0 16.1 0.00 0.03 0.03 87 1015.3
20260905130058 23 20 1.6 16.1 0.00 0.03 0.03 88 1015.2
20260905125530 23 110 3.2 12.9 0.00 0.03 0.03 88 1015.1
20260905125027 23 123 0.0 11.3 0.00 0.03 0.03 89 1015.4
20260905124600 23 120 3.2 11.3 0.03 0.03 0.03 89 1015.1
20260905124034 23 192 1.6 8.0 0.03 0.03 0.03 90 1015.2
20260905123527 23 117 0.0 8.0 0.03 0.03 0.03 90 1014.4
20260905123052 23 137 1.6 8.0 0.03 0.03 0.03 89 1014.2
20260905122528 23 158 1.6 4.8 0.03 0.03 0.03 89 1014.3
20260905122028 23 155 1.6 4.8 0.03 0.03 0.03 89 1014.5
20260905121600 23 0 0.0 1.6 0.03 0.03 0.03 89 1014.7
20260905121030 23 0 0.0 8.0 0.03 0.03 0.03 89 1014.4
20260905120529 23 0 1.6 8.0 0.03 0.03 0.03 88 1014.5
20260905120109 23 177 3.2 11.3 0.03 0.03 0.03 87 1014.2
20260905115527 23 0 0.0 11.3 0.03 0.03 0.03 87 1014.5
20260905115031 24 0 3.2 11.3 0.03 0.03 0.03 86 1014.3
20260905114607 25 157 3.2 8.0 0.00 0.00 0.00 83 1014.1
20260905114027 25 160 0.0 4.8 0.00 0.00 0.00 82 1014.0
20260905113533 25 0 0.0 4.8 0.00 0.00 0.00 82 1013.8
20260905113058 25 181 1.6 8.0 0.00 0.00 0.00 82 1013.8
20260905112530 25 146 0.0 8.0 0.00 0.00 0.00 83 1013.9
20260905112030 25 130 1.6 8.0 0.00 0.00 0.00 83 1013.9
20260905111633 25 0 0.0 4.8 0.00 0.00 0.00 84 1013.9
20260905111030 25 0 1.6 4.8 0.00 0.00 0.00 85 1013.7
20260905110529 25 0 0.0 8.0 0.00 0.00 0.00 86 1013.9
20260905110056 25 145 1.6 8.0 0.00 0.00 0.00 87 1013.8
20260905105532 24 122 0.0 1.6 0.00 0.00 0.00 90 1013.8
20260905105027 25 0 0.0 0.0 0.00 0.00 0.00 89 1013.0
20260905104556 25 0 0.0 0.0 0.00 0.00 0.00 89 1012.9
20260905104028 25 0 0.0 0.0 0.00 0.00 0.00 89 1012.9
20260905103531 25 0 0.0 0.0 0.00 0.00 0.00 89 1012.8
20260905103101 25 0 0.0 0.0 0.00 0.00 0.00 88 1012.8
20260905102528 25 0 0.0 0.0 0.00 0.00 0.00 88 1012.6
20260905102030 25 0 0.0 0.0 0.00 0.00 0.00 88 1012.5
20260905101601 25 0 0.0 0.0 0.00 0.00 0.00 87 1012.7
20260905101028 25 0 0.0 0.0 0.00 0.00 0.00 87 1012.8
20260905100529 25 0 0.0 0.0 0.00 0.00 0.00 87 1012.8
20260905095530 25 0 0.0 0.0 0.00 0.00 0.00 87 1012.8
20260905095032 25 0 0.0 0.0 0.00 0.00 0.00 87 1012.9
20260905094554 25 0 0.0 0.0 0.00 0.00 0.00 87 1012.9
20260905094028 25 158 0.0 0.0 0.00 0.00 0.00 87 1012.9
20260905093528 25 0 0.0 0.0 0.00 0.00 0.00 86 1012.8
20260905093107 26 0 0.0 0.0 0.00 0.00 0.00 86 1012.7
20260905092533 26 0 0.0 0.0 0.00 0.00 0.00 85 1012.7
20260905092029 26 0 0.0 0.0 0.00 0.00 0.00 85 1012.5
20260905091546 26 0 0.0 1.6 0.00 0.00 0.00 84 1012.6
20260905091030 26 0 0.0 3.2 0.00 0.00 0.00 85 1012.7
20260905090529 26 150 0.0 3.2 0.00 0.00 0.00 84 1012.6
20260905090047 26 87 0.0 6.4 0.00 0.00 0.00 85 1012.6
20260905085529 26 0 1.6 6.4 0.00 0.00 0.00 85 1012.6
20260905085031 26 40 0.0 3.2 0.00 0.00 0.00 85 1012.6
20260905084558 26 0 0.0 0.0 0.00 0.00 0.00 84 1012.3
20260905084028 26 0 0.0 0.0 0.00 0.00 0.00 84 1012.3
20260905083531 26 0 0.0 0.0 0.00 0.00 0.00 84 1012.2
20260905083053 26 0 0.0 1.6 0.00 0.00 0.00 84 1012.4
20260905082527 26 0 0.0 1.6 0.00 0.00 0.00 83 1012.4
20260905082028 26 0 0.0 9.7 0.00 0.00 0.00 83 1012.5
20260905081546 26 0 4.8 9.7 0.00 0.00 0.00 83 1012.5
20260905081033 26 0 0.0 12.9 0.00 0.00 0.00 83 1012.4
20260905080530 26 184 1.6 12.9 0.00 0.00 0.00 83 1012.3
20260905080048 26 347 1.6 8.0 0.00 0.00 0.00 84 1012.5
20260905075529 26 0 0.0 0.0 0.00 0.00 0.00 81 1012.1
20260905075027 26 0 0.0 0.0 0.00 0.00 0.00 79 1012.1
20260905074545 27 0 0.0 0.0 0.00 0.00 0.00 79 1012.2
20260905074030 27 0 0.0 0.0 0.00 0.00 0.00 78 1012.3
20260905073529 27 0 0.0 4.8 0.00 0.00 0.00 78 1012.3
20260905073053 27 0 0.0 4.8 0.00 0.00 0.00 76 1012.3
20260905072529 27 224 0.0 0.0 0.00 0.00 0.00 77 1012.6
20260905072029 27 168 0.0 0.0 0.00 0.00 0.00 77 1012.6
20260905071550 27 0 0.0 0.0 0.00 0.00 0.00 78 1012.5
20260905071028 27 0 0.0 0.0 0.00 0.00 0.00 78 1012.6
20260905070534 27 0 0.0 0.0 0.00 0.00 0.00 79 1012.6
20260905065528 27 0 0.0 0.0 0.00 0.00 0.00 80 1012.8
20260905065027 27 0 0.0 0.0 0.00 0.00 0.00 80 1012.8
20260905064611 27 0 0.0 0.0 0.00 0.00 0.00 78 1012.8
20260905064030 27 0 0.0 0.0 0.00 0.00 0.00 77 1013.1
20260905063531 27 0 0.0 0.0 0.00 0.00 0.00 77 1013.1
20260905063052 27 0 0.0 0.0 0.00 0.00 0.00 78 1013.2
20260905062530 27 0 0.0 0.0 0.00 0.00 0.00 79 1013.2
20260905062029 27 0 0.0 0.0 0.00 0.00 0.00 79 1013.3
20260905061547 27 164 0.0 4.8 0.00 0.00 0.00 80 1013.4
20260905061027 27 0 0.0 4.8 0.00 0.00 0.00 78 1013.5
20260905060528 27 160 1.6 4.8 0.00 0.00 0.00 78 1013.6
20260905060056 27 158 0.0 4.8 0.00 0.00 0.00 78 1013.6
20260905055529 27 172 1.6 4.8 0.00 0.00 0.00 77 1013.6
20260905055032 27 170 1.6 4.8 0.00 0.00 0.00 78 1013.7
20260905054554 27 187 1.6 4.8 0.00 0.00 0.00 76 1013.7
20260905054030 27 198 0.0 6.4 0.00 0.00 0.00 76 1013.7
20260905053528 27 0 1.6 6.4 0.00 0.00 0.00 76 1013.7
20260905053100 27 180 0.0 6.4 0.00 0.00 0.00 77 1013.7
20260905052529 28 178 3.2 6.4 0.00 0.00 0.00 76 1013.8
20260905052030 27 214 1.6 6.4 0.00 0.00 0.00 77 1013.7
20260905051602 27 189 0.0 3.2 0.00 0.00 0.00 78 1013.7
20260905051029 27 0 0.0 4.8 0.00 0.00 0.00 79 1013.7
20260905050529 27 176 0.0 4.8 0.00 0.00 0.00 79 1013.7
20260905050057 27 171 0.0 3.2 0.00 0.00 0.00 79 1013.8
20260905045528 27 0 0.0 1.6 0.00 0.00 0.00 80 1013.8
20260905045029 27 161 0.0 0.0 0.00 0.00 0.00 79 1013.9
20260905044558 27 0 0.0 0.0 0.00 0.00 0.00 80 1013.9
20260905044027 27 0 0.0 0.0 0.00 0.00 0.00 79 1013.9
20260905043530 27 0 0.0 0.0 0.00 0.00 0.00 79 1013.9
20260905043104 27 0 0.0 0.0 0.00 0.00 0.00 79 1013.9
20260905042528 27 0 0.0 0.0 0.00 0.00 0.00 78 1013.9
20260905042028 27 0 0.0 0.0 0.00 0.00 0.00 78 1013.8
20260905041600 27 0 0.0 0.0 0.00 0.00 0.00 78 1013.8
20260905041028 27 0 0.0 0.0 0.00 0.00 0.00 79 1013.7
20260905040530 27 0 0.0 0.0 0.00 0.00 0.00 77 1013.7
20260905040100 27 0 0.0 0.0 0.00 0.00 0.00 76 1013.7
20260905035529 27 0 0.0 0.0 0.00 0.00 0.00 76 1013.7
20260905035028 27 0 0.0 0.0 0.00 0.00 0.00 76 1013.7
20260905034607 27 0 0.0 0.0 0.00 0.00 0.00 76 1013.8
20260905034027 27 0 0.0 0.0 0.00 0.00 0.00 76 1013.7
20260905033530 27 0 0.0 0.0 0.00 0.00 0.00 76 1013.9
20260905033051 27 0 0.0 0.0 0.00 0.00 0.00 75 1013.7
20260905032530 27 0 0.0 0.0 0.00 0.00 0.00 76 1013.8
20260905032032 27 0 0.0 0.0 0.00 0.00 0.00 76 1013.9
20260905031559 28 0 0.0 0.0 0.00 0.00 0.00 75 1013.9
20260905031032 28 0 0.0 0.0 0.00 0.00 0.00 75 1013.9
20260905030529 28 0 0.0 0.0 0.00 0.00 0.00 75 1014.0
20260905030116 28 0 0.0 0.0 0.00 0.00 0.00 76 1014.0
20260905025528 28 0 0.0 0.0 0.00 0.00 0.00 74 1014.0
20260905025032 28 0 0.0 0.0 0.00 0.00 0.00 73 1014.0
20260905024552 28 0 0.0 0.0 0.00 0.00 0.00 73 1014.0
20260905024032 28 0 0.0 0.0 0.00 0.00 0.00 73 1014.0
20260905023531 28 0 0.0 0.0 0.00 0.00 0.00 74 1013.7
20260905023101 28 0 0.0 0.0 0.00 0.00 0.00 73 1013.8
20260905022529 28 0 0.0 0.0 0.00 0.00 0.00 73 1013.8
20260905022029 28 0 0.0 0.0 0.00 0.00 0.00 72 1013.9
20260905021559 28 0 0.0 0.0 0.00 0.00 0.00 71 1013.8
20260905021028 28 0 0.0 0.0 0.00 0.00 0.00 71 1013.7
20260905020528 28 0 0.0 0.0 0.00 0.00 0.00 73 1013.7
20260905020106 28 0 0.0 0.0 0.00 0.00 0.00 73 1013.7
20260905015531 29 0 0.0 0.0 0.00 0.00 0.00 72 1013.7
20260905015031 29 0 0.0 0.0 0.00 0.00 0.00 71 1013.6
20260905014559 29 0 0.0 0.0 0.00 0.00 0.00 70 1013.6
20260905014031 30 0 0.0 0.0 0.00 0.00 0.00 68 1013.6
20260905013532 30 0 0.0 0.0 0.00 0.00 0.00 69 1013.5
20260905013053 30 0 0.0 0.0 0.00 0.00 0.00 70 1013.5
20260905012530 30 0 0.0 0.0 0.00 0.00 0.00 69 1013.4
20260905012029 30 0 0.0 0.0 0.00 0.00 0.00 68 1013.3
20260905011606 30 0 0.0 0.0 0.00 0.00 0.00 67 1013.3
20260905011032 30 0 0.0 0.0 0.00 0.00 0.00 66 1013.2
20260905010529 30 0 0.0 0.0 0.00 0.00 0.00 66 1013.3
20260905010059 30 0 0.0 0.0 0.00 0.00 0.00 66 1013.2
20260905005529 31 0 0.0 0.0 0.00 0.00 0.00 66 1013.2
20260905005029 31 0 0.0 0.0 0.00 0.00 0.00 65 1013.1
20260905004555 31 0 0.0 0.0 0.00 0.00 0.00 65 1013.1
20260905004029 31 0 0.0 0.0 0.00 0.00 0.00 64 1013.2
20260905003531 31 0 0.0 0.0 0.00 0.00 0.00 64 1013.1
20260905003052 32 0 0.0 0.0 0.00 0.00 0.00 62 1012.9
20260905002529 32 0 0.0 1.6 0.00 0.00 0.00 61 1012.9
20260905002030 32 0 0.0 1.6 0.00 0.00 0.00 61 1012.8
20260905001608 32 0 0.0 0.0 0.00 0.00 0.00 61 1012.8
20260905001028 32 0 0.0 3.2 0.00 0.00 0.00 61 1012.9
20260905000529 32 0 0.0 3.2 0.00 0.00 0.00 59 1012.7
20260905000104 33 0 0.0 6.4 0.00 0.00 0.00 58 1012.5
20260904235531 33 176 1.6 6.4 0.00 0.00 0.00 58 1012.5
20260904235028 33 176 0.0 4.8 0.00 0.00 0.00 60 1012.6
20260904234605 32 155 0.0 3.2 0.00 0.00 0.00 61 1012.6
20260904234031 33 0 0.0 0.0 0.00 0.00 0.00 58 1012.6
20260904233531 34 0 0.0 0.0 0.00 0.00 0.00 56 1012.9
20260904233057 34 0 0.0 0.0 0.00 0.00 0.00 55 1013.0
20260904232532 34 0 0.0 0.0 0.00 0.00 0.00 55 1012.9
20260904232031 35 0 0.0 0.0 0.00 0.00 0.00 51 1012.9
20260904231557 35 0 0.0 0.0 0.00 0.00 0.00 53 1013.0
20260904231035 35 0 0.0 3.2 0.00 0.00 0.00 49 1013.1
20260904230529 35 0 0.0 4.8 0.00 0.00 0.00 51 1013.2
20260904230058 35 0 0.0 4.8 0.00 0.00 0.00 49 1013.1
20260904225531 35 23 0.0 4.8 0.00 0.00 0.00 49 1013.1
20260904225031 36 0 0.0 4.8 0.00 0.00 0.00 49 1013.1
20260904224552 36 0 0.0 4.8 0.00 0.00 0.00 49 1013.3
20260904224032 35 0 1.6 6.4 0.00 0.00 0.00 50 1013.3
20260904223528 35 10 1.6 9.7 0.00 0.00 0.00 49 1013.3
20260904223052 35 0 1.6 9.7 0.00 0.00 0.00 49 1013.2
20260904222531 35 17 3.2 9.7 0.00 0.00 0.00 49 1013.2
20260904222032 35 88 1.6 11.3 0.00 0.00 0.00 49 1013.4
20260904221605 35 0 4.8 11.3 0.00 0.00 0.00 49 1013.3
20260904221033 35 49 3.2 8.0 0.00 0.00 0.00 51 1013.3
20260904220529 35 36 4.8 8.0 0.00 0.00 0.00 50 1013.2
20260904220110 35 65 1.6 6.4 0.00 0.00 0.00 50 1013.2
20260904215531 35 22 0.0 3.2 0.00 0.00 0.00 51 1013.2
20260904215028 34 0 0.0 1.6 0.00 0.00 0.00 52 1013.2
20260904214556 34 0 0.0 4.8 0.00 0.00 0.00 51 1013.3
20260904214031 35 0 0.0 4.8 0.00 0.00 0.00 51 1013.3
20260904213530 35 45 0.0 4.8 0.00 0.00 0.00 51 1013.3
20260904213051 34 0 0.0 3.2 0.00 0.00 0.00 51 1013.3
20260904212532 34 0 0.0 3.2 0.00 0.00 0.00 52 1013.3
20260904212031 35 60 0.0 6.4 0.00 0.00 0.00 50 1013.5
20260904211553 35 0 1.6 6.4 0.00 0.00 0.00 50 1013.3
20260904211030 35 23 1.6 4.8 0.00 0.00 0.00 49 1013.3
20260904210531 35 349 1.6 9.7 0.00 0.00 0.00 49 1013.3
20260904205530 35 9 6.4 12.9 0.00 0.00 0.00 49 1013.5